Location: Sevilla
(37.3933°N, 5.9839°W)
Time: 13:40:49
(UTC+02:00)

Courier 1B - Visible Passes

Search period start: 21 June 2024 00:00
Search period end: 01 July 2024 00:00
Orbit: 962 x 1208 km, 28.3° (Epoch: 21 June)

Date Brightness Start Highest point End Pass type
(mag) Time Alt. Az. Time Alt. Az. Time Alt. Az.
21 Jun 8.2 04:24:55 39° S 04:25:37 40° S 04:32:42 10° ESE visible
21 Jun 8.4 06:12:26 10° WSW 06:19:23 40° S 06:26:35 10° ESE visible
22 Jun 8.8 03:34:17 29° SE 03:34:17 29° SE 03:38:36 10° ESE visible
22 Jun 8.3 05:21:10 22° WSW 05:25:30 42° S 05:32:42 10° ESE visible
23 Jun 9.8 02:43:45 13° ESE 02:43:45 13° ESE 02:44:27 10° ESE visible
23 Jun 8.1 04:30:39 40° SSW 04:31:39 42° S 04:38:45 10° ESE visible
23 Jun 8.6 06:18:45 10° WSW 06:25:22 34° SSW 06:32:12 10° SE visible
24 Jun 8.6 03:40:14 32° SE 03:40:14 32° SE 03:44:46 10° ESE visible
24 Jun 8.4 05:27:08 20° WSW 05:31:31 37° S 05:38:29 10° SE visible
25 Jun 9.7 02:49:58 13° ESE 02:49:58 13° ESE 02:50:43 10° ESE visible
25 Jun 8.1 04:36:52 38° SSW 04:37:41 40° S 04:44:39 10° ESE visible
25 Jun 8.8 06:25:22 10° WSW 06:31:17 26° SSW 06:37:24 10° SSE visible
26 Jun 8.8 03:46:50 29° SE 03:46:50 29° SE 03:50:45 10° ESE visible
26 Jun 8.6 05:33:45 19° WSW 05:37:30 30° SSW 05:43:55 10° SE visible
26 Jun 9.2 23:00:58 10° S 23:02:28 12° SSE 23:02:28 12° SSE visible
27 Jun 8.4 04:43:58 33° S 04:43:58 33° S 04:50:18 10° SE visible
27 Jun 9.2 06:32:36 10° WSW 06:37:10 17° SSW 06:41:50 10° SSE visible
27 Jun 9.0 23:57:50 10° SSW 00:00:12 19° SSW 00:00:12 19° SSW visible
28 Jun 9.3 03:54:25 19° SE 03:54:25 19° SE 03:56:34 10° SE visible
28 Jun 8.9 05:41:23 19° SW 05:43:25 21° SSW 05:48:50 10° SSE visible
28 Jun 8.7 23:04:53 10° SSW 23:09:24 20° SSE 23:10:44 19° SE visible
29 Jun 9.4 00:56:43 10° SW 00:57:42 14° SW 00:57:42 14° SW visible
29 Jun 9.0 04:52:06 21° S 04:52:06 21° S 04:55:32 10° SSE visible
29 Jun 9.0 22:12:17 10° S 22:15:51 15° SSE 22:19:26 10° ESE visible
30 Jun 8.3 00:03:19 10° SW 00:07:59 30° S 00:07:59 30° S visible
30 Jun 9.3 05:49:59 13° SSW 05:49:59 13° SSW 05:52:32 10° S visible
30 Jun 8.4 23:10:01 10° SW 23:15:21 27° SSE 23:18:03 21° SE visible
